sat.trackr.live / text

‹ back to catalog

STARLINK-33741

NORAD 63365 · 2025-063C

PAYLOAD ACTIVE UNKNOWN

§ Identity

Operator
Country
US
Launch date
2025-03-26
Launch site
AFWTR
Launch vehicle
Mass (kg)
RCS (m²)

Purposes: comms

External: N2YO · Heavens-Above · Gunter

§ Orbital elements

Epoch: 2026-05-25T03:07:59.794752Z

Period
93.79 min
Inclination
53.1603°
Eccentricity
0.0001319
Mean motion
15.35399067 rev/d
Perigee alt
458.8 km
Apogee alt
460.6 km
Semi-major
6,837.9 km
B*
4.1680e-4
RAAN
55.2213°
Arg perigee
88.0932°
Mean anomaly
272.0222°
Rev number
6,649

§ Raw data

STARLINK-337411 63365U 25063C   26145.13055318  .00014185  00000+0  41680-3 0  99932 63365  53.1603  55.2213 0001319  88.0932 272.0222 15.35399067 66495

JSON: /api/v1/satellites/63365 · /tle

For live sub-satellite position, see the globe view (requires WebGL).

§ Visibility from observer

Set your observer location to see the next 7 days of passes ≥ 10°. The values pass through the URL so the page stays shareable.

No JS? Fill the form by hand. The geolocation button needs JavaScript.